Osceola Municipal, IA

11:25 PM CST on December 14, 2017 (GMT -0600)
Osceola Municipal

Weather History for KI75 - November, 2013

Change the Weather History Date:

Friday, November 22, 2013

  Actual Average (KCNC) Record (KCNC)
Temperature  
Mean Temperature 20 °F -  
Max Temperature 25 °F 48 °F 71 °F (1990)
Min Temperature 14 °F 26 °F 7 °F (1964)
Degree Days  
Heating Degree Days 46    
Moisture  
Dew Point 16 °F    
Average Humidity 84    
Maximum Humidity 91    
Minimum Humidity 74    
Precipitation  
Precipitation 0.02 in - - ()
Sea Level Pressure  
Sea Level Pressure 30.55 in    
Wind  
Wind Speed 7 mph (NW)    
Max Wind Speed 13 mph    
Max Gust Speed -    
Visibility 10 miles    
Events Snow    
Averages and records for this station are not official NWS values.
T = Trace of Precipitation, MM = Missing Value Source: NWS Daily Summary

Daily Weather History Graph

Daily Weather History Graph

Search for Another Location

Airport or City:

Trip Planner

Search our weather history database for the weather conditions in past years. The results will help you decide how hot, cold, wet, or windy it might be!

Date:

Astronomy

Nov. 22, 2013 Rise Set
Actual Time 7:10 AM CST 4:50 PM CST
Civil Twilight 6:40 AM CST 5:20 PM CST
Nautical Twilight 6:07 AM CST 5:54 PM CST
Astronomical Twilight 5:34 AM CST 6:27 PM CST
Moon 9:24 PM CST (11/22) 10:54 AM CST (11/22)
Length of Visible Light 10h 40m
Length of Day
9h 39m
Waning Gibbous, 78% of the Moon is Illuminated
Nov 22
Waning Gibbous
Nov 25
Last Quarter
Dec 2
New
Dec 9
First Quarter
Dec 17
Full

Hourly Weather History & Observations

Time (CST) Temp. Windchill Dew Point Humidity Pressure Visibility Wind Dir Wind Speed Gust Speed Precip Events Conditions
12:15 AM 25.3 °F 16.7 °F 23.0 °F 91% 30.42 in 3.0 mi NW 8.1 mph - N/A Snow Light Snow
12:35 AM 24.4 °F 15.6 °F 22.1 °F 91% 30.43 in 3.0 mi NW 8.1 mph - N/A Snow Light Snow
12:55 AM 23.7 °F 14.0 °F 21.6 °F 91% 30.43 in 2.0 mi NW 9.2 mph - N/A Snow Light Snow
1:15 AM 23.4 °F 13.5 °F 20.8 °F 90% 30.44 in 4.0 mi NNW 9.2 mph - N/A Snow Light Snow
1:35 AM 23.0 °F 13.1 °F 20.3 °F 89% 30.44 in 7.0 mi NNW 9.2 mph - N/A Snow Light Snow
1:55 AM 22.8 °F 12.9 °F 20.1 °F 89% 30.45 in 10.0 mi NW 9.2 mph - N/A   Overcast
2:15 AM 22.5 °F 11.7 °F 19.4 °F 88% 30.45 in 10.0 mi NNW 10.4 mph - N/A   Overcast
2:35 AM 22.1 °F 10.0 °F 19.2 °F 89% 30.46 in 10.0 mi NNW 12.7 mph - N/A   Overcast
2:55 AM 22.1 °F 10.0 °F 19.0 °F 88% 30.46 in 10.0 mi NNW 12.7 mph - N/A   Overcast
3:15 AM 21.7 °F 11.5 °F 18.7 °F 88% 30.48 in 10.0 mi NW 9.2 mph - N/A   Overcast
3:35 AM 21.4 °F 11.1 °F 18.3 °F 88% 30.48 in 10.0 mi NNW 9.2 mph - N/A   Overcast
3:55 AM 21.6 °F 13.0 °F 18.5 °F 88% 30.48 in 10.0 mi NW 6.9 mph - N/A   Overcast
4:15 AM 21.4 °F 11.1 °F 18.3 °F 88% 30.48 in 10.0 mi NNW 9.2 mph - N/A   Overcast
4:35 AM 21.2 °F 9.5 °F 18.3 °F 89% 30.48 in 10.0 mi NNW 11.5 mph - N/A   Overcast
4:55 AM 21.2 °F 11.7 °F 18.5 °F 89% 30.49 in 10.0 mi NNW 8.1 mph - N/A   Overcast
5:15 AM 21.2 °F 10.9 °F 18.3 °F 89% 30.50 in 10.0 mi NNW 9.2 mph - N/A   Overcast
5:35 AM 21.0 °F 13.4 °F 18.0 °F 88% 30.51 in 10.0 mi NNW 5.8 mph - N/A   Overcast
5:55 AM 20.7 °F 11.9 °F 17.6 °F 88% 30.52 in 10.0 mi NNW 6.9 mph - N/A   Overcast
6:15 AM 20.1 °F 11.3 °F 17.2 °F 89% 30.53 in 10.0 mi NNW 6.9 mph - N/A   Overcast
6:35 AM 19.2 °F 11.3 °F 16.3 °F 89% 30.53 in 10.0 mi NW 5.8 mph - N/A   Mostly Cloudy
6:55 AM 18.5 °F 8.4 °F 15.6 °F 89% 30.54 in 10.0 mi NNW 8.1 mph - N/A   Mostly Cloudy
7:15 AM 18.1 °F 8.9 °F 14.9 °F 87% 30.55 in 10.0 mi NNW 6.9 mph - N/A   Scattered Clouds
7:35 AM 17.6 °F 8.2 °F 14.7 °F 88% 30.54 in 10.0 mi NW 6.9 mph - N/A   Clear
7:55 AM 17.4 °F 10.4 °F 14.2 °F 87% 30.54 in 10.0 mi NNW 4.6 mph - N/A   Clear
8:15 AM 18.0 °F 7.7 °F 14.4 °F 86% 30.55 in 10.0 mi NNW 8.1 mph - N/A   Clear
8:35 AM 18.3 °F 9.1 °F 14.5 °F 85% 30.55 in 10.0 mi NNW 6.9 mph - N/A   Clear
8:55 AM 18.9 °F 10.8 °F 14.7 °F 84% 30.56 in 10.0 mi NNW 5.8 mph - N/A   Clear
9:15 AM 19.4 °F 10.4 °F 15.4 °F 85% 30.56 in 10.0 mi NNW 6.9 mph - N/A   Clear
9:35 AM 19.9 °F 13.4 °F 15.6 °F 83% 30.56 in 10.0 mi North 4.6 mph - N/A   Clear
9:55 AM 20.3 °F 13.8 °F 16.0 °F 83% 30.56 in 10.0 mi North 4.6 mph - N/A   Clear
10:15 AM 21.0 °F - 16.3 °F 82% 30.58 in 10.0 mi Calm Calm - N/A   Clear
10:35 AM 23.0 °F 15.8 °F 18.9 °F 84% 30.60 in 10.0 mi NW 5.8 mph - N/A   Scattered Clouds
10:55 AM 23.9 °F 15.8 °F 19.8 °F 84% 30.61 in 10.0 mi NW 6.9 mph - N/A   Scattered Clouds
11:15 AM 23.2 °F 14.1 °F 19.2 °F 85% 30.61 in 10.0 mi NW 8.1 mph - N/A   Mostly Cloudy
11:35 AM 23.0 °F 14.7 °F 18.9 °F 84% 30.61 in 10.0 mi NW 6.9 mph - N/A   Mostly Cloudy
11:55 AM 23.0 °F 13.9 °F 18.3 °F 82% 30.61 in 10.0 mi NW 8.1 mph - N/A   Scattered Clouds
12:15 PM 22.3 °F 16.1 °F 18.1 °F 84% 30.60 in 10.0 mi NW 4.6 mph - N/A   Clear
12:35 PM 22.5 °F 15.1 °F 18.3 °F 84% 30.60 in 10.0 mi NW 5.8 mph - N/A   Clear
12:55 PM 22.6 °F 14.3 °F 18.3 °F 83% 30.61 in 10.0 mi NW 6.9 mph - N/A   Clear
1:15 PM 22.6 °F 14.3 °F 17.8 °F 82% 30.60 in 10.0 mi NW 6.9 mph - N/A   Clear
1:35 PM 23.0 °F 14.7 °F 18.5 °F 83% 30.60 in 10.0 mi WNW 6.9 mph - N/A   Clear
1:55 PM 23.4 °F 14.3 °F 18.1 °F 80% 30.60 in 10.0 mi NW 8.1 mph - N/A   Clear
2:15 PM 23.7 °F 14.7 °F 18.1 °F 79% 30.60 in 10.0 mi NW 8.1 mph - N/A   Clear
2:35 PM 23.7 °F 16.6 °F 17.8 °F 78% 30.59 in 10.0 mi NW 5.8 mph - N/A   Clear
2:55 PM 23.9 °F 15.8 °F 17.6 °F 77% 30.60 in 10.0 mi NW 6.9 mph - N/A   Clear
3:15 PM 23.9 °F 18.0 °F 18.0 °F 78% 30.58 in 10.0 mi NW 4.6 mph - N/A   Clear
3:35 PM 23.5 °F 19.1 °F 17.4 °F 77% 30.58 in 10.0 mi WNW 3.5 mph - N/A   Clear
3:55 PM 23.0 °F 18.4 °F 17.6 °F 80% 30.59 in 10.0 mi NW 3.5 mph - N/A   Clear
4:15 PM 22.6 °F 18.0 °F 15.6 °F 74% 30.59 in 10.0 mi NW 3.5 mph - N/A   Clear
4:35 PM 21.7 °F - 14.9 °F 75% 30.58 in 10.0 mi Calm Calm - N/A   Clear
4:55 PM 20.1 °F - 14.2 °F 78% 30.57 in 10.0 mi Calm Calm - N/A   Clear
5:15 PM 19.8 °F - 14.2 °F 79% 30.57 in 10.0 mi Calm Calm - N/A   Clear
5:35 PM 19.4 °F - 15.6 °F 85% 30.57 in 10.0 mi Calm Calm - N/A   Clear
5:55 PM 17.8 °F - 13.6 °F 84% 30.56 in 10.0 mi Calm Calm - N/A   Clear
6:15 PM 16.0 °F 10.4 °F 12.9 °F 88% 30.57 in 10.0 mi WSW 3.5 mph - N/A   Clear
6:35 PM 16.3 °F 9.2 °F 12.2 °F 84% 30.57 in 10.0 mi WSW 4.6 mph - N/A   Clear
6:55 PM 16.2 °F 9.0 °F 12.2 °F 84% 30.57 in 10.0 mi West 4.6 mph - N/A   Clear
7:15 PM 14.2 °F 6.7 °F 10.6 °F 86% 30.57 in 10.0 mi WSW 4.6 mph - N/A   Clear
7:35 PM 14.4 °F 8.6 °F 10.9 °F 86% 30.57 in 10.0 mi WSW 3.5 mph - N/A   Clear
7:55 PM 14.2 °F 6.7 °F 11.3 °F 88% 30.57 in 10.0 mi WSW 4.6 mph - N/A   Clear
8:15 PM 14.9 °F 7.5 °F 11.3 °F 86% 30.57 in 10.0 mi SW 4.6 mph - N/A   Clear
8:35 PM 15.3 °F 6.6 °F 11.7 °F 86% 30.56 in 10.0 mi WSW 5.8 mph - N/A   Clear
8:55 PM 14.7 °F 5.9 °F 11.5 °F 87% 30.56 in 10.0 mi West 5.8 mph - N/A   Clear
9:15 PM 15.8 °F 8.6 °F 11.7 °F 84% 30.56 in 10.0 mi WSW 4.6 mph - N/A   Clear
9:35 PM 15.4 °F 8.1 °F 10.9 °F 82% 30.56 in 10.0 mi West 4.6 mph - N/A   Clear
9:55 PM 15.8 °F 8.6 °F 11.1 °F 82% 30.56 in 10.0 mi West 4.6 mph - N/A   Clear
10:15 PM 16.0 °F 8.8 °F 11.1 °F 81% 30.56 in 10.0 mi West 4.6 mph - N/A   Clear
10:35 PM 15.8 °F 8.6 °F 11.1 °F 82% 30.56 in 10.0 mi West 4.6 mph - N/A   Clear
10:55 PM 14.9 °F 6.1 °F 10.4 °F 82% 30.56 in 10.0 mi WSW 5.8 mph - N/A   Clear
11:15 PM 16.2 °F 7.6 °F 10.8 °F 79% 30.57 in 10.0 mi WSW 5.8 mph - N/A   Clear
11:35 PM 17.1 °F 10.0 °F 10.4 °F 75% 30.56 in 10.0 mi WSW 4.6 mph - N/A   Clear
11:55 PM 16.7 °F 8.3 °F 10.2 °F 76% 30.56 in 10.0 mi West 5.8 mph - N/A   Clear